Skip Page Navigation
NASA JPL Caltech
NASA Logo - Jet Propulsion Laboratory + View the NASA Portal
+ Near-Earth Object (NEO) Program
Search JPL
JPL Home Earth Solar System Stars & Galaxies Technology
JPL Solar System Dynamics
BODIES ORBITS EPHEMERIDES TOOLS PHYSICAL DATA DISCOVERY FAQ SITE MAP
JPL Small-Body Database Browser
Search: [ help ]  
145451 (2005 RM43)
Classification: TransNeptunian Object          SPK-ID: 2145451
Ephemeris | Orbit Diagram | Orbital Elements | Physical Parameters | Discovery Circumstances ]

[ hide orbit diagram ]
Orbit Diagram
Note: Make sure you have Java enabled on your browser to see the applet. This applet is provided as a 3D orbit visualization tool. The applet was implemented using 2-body methods, and hence should not be used for determining accurate long-term trajectories (over several years or decades) or planetary encounter circumstances. For accurate long-term ephemerides, please instead use our Horizons system.
Orbit Viewer

Additional Notes: the orbits shown in the applet are color coded. The planets are white lines, and the asteroid/comet is a blue line. The bright white line indicates the portion of the orbit that is above the ecliptic plane, and the darker portion is below the ecliptic plane. Likewise for the asteroid/comet orbit, the light blue indicates the portion above the ecliptic plane, and the dark blue the portion below the ecliptic plane.

Orbit Viewer applet originally written and kindly provided by Osamu Ajiki (AstroArts), and further modified by Ron Baalke (JPL).


Orbital Elements at Epoch 2456400.5 (2013-Apr-18.0) TDB
Reference: MPO226879 (heliocentric ecliptic J2000)
 Element Value Uncertainty (1-sigma)   Units 
e 0.6183899 n/a  
a 92.0381357 n/a AU
q 35.1226822 n/a AU
i 28.71531 n/a deg
node 84.67347 n/a deg
peri 318.52344 n/a deg
M 3.39283 n/a deg
tp 2453360.9561784
(2004-Dec-21.45617840)
n/a JED
period 322514.1771857
883.00
n/a
n/a
d
yr
n 0.00111623 n/a deg/d
Q 148.9535892 n/a AU
  Orbit Determination Parameters
   # obs. used (total)      197  
   first obs. used      1976-??-??  
   last obs. used      2010-12-26  
   # oppositions      11  
   planetary ephem.      DE403  
   condition code      0  
   fit RMS      0.20  
   data source      MPC:mpu  
   producer      MPCLINUX  

Additional Information
 T_jup = 5.854 
 MPC Scattered disk 

Ephemeris | Orbit Diagram | Orbital Elements | Physical Parameters | Discovery Circumstances ]

Physical Parameter Table
Parameter Symbol Value Units Sigma Reference Notes
absolute magnitude H 4.4 mag n/a MPO226879  
rotation period rot_per 6.71 h n/a Asteroid Lightcurve DataBase (Rev. 2013-May-01) Result based on less than full coverage, so that the period may be wrong by 30 percent or so.
Published Reference List:
[Thirouin, A.; Ortiz, J.L.; Duffard, R.; Santos-Sanz, P.; et al. (2010) Astron. Astrophys. 522, A93.]

145451 (2005 RM43)          Discovered 2005-Sep-09 by Becker, A. C., Puckett, A. W., Kubica, J. at Apache Point (705)
Reference: 20061205/Numbers.arcLast Updated: 2006-12-13
Ephemeris | Orbit Diagram | Orbital Elements | Physical Parameters | Discovery Circumstances ]
ABOUT SSD CREDITS/AWARDS PRIVACY/COPYRIGHT GLOSSARY LINKS
FirstGov 2013-May-24 09:39 UT
(server date/time)  
NASA Home Page
Site Manager:   Donald K. Yeomans
Webmaster  Alan B. Chamberlin